Location: Piotrkow Trybunalski
(51.4000°N, 19.6830°E)
Time: 03:55:43
(UTC+02:00)

A-11 Canister half - Visible Passes

Search period start: 25 May 2024 00:00
Search period end: 04 June 2024 00:00
Orbit: 1525 x 1683 km, 47.3° (Epoch: 23 May)

Date Brightness Start Highest point End Pass type
(mag) Time Alt. Az. Time Alt. Az. Time Alt. Az.
25 May 8.9 00:09:35 10° W 00:19:01 71° S 00:28:47 10° E visible
25 May 9.1 02:14:14 10° W 02:23:29 53° SSW 02:33:01 10° SE visible
25 May 9.1 21:43:50 10° SW 21:52:51 54° SSE 22:02:08 10° E visible
25 May 8.9 23:47:51 10° W 23:57:16 71° S 00:07:01 10° E visible
26 May 9.1 01:52:30 10° W 02:01:45 54° SSW 02:11:18 10° SE visible
26 May 9.1 21:22:11 10° SW 21:31:08 53° SSE 21:40:21 10° E visible
26 May 9.0 23:26:08 10° W 23:35:31 71° S 23:45:14 10° E visible
27 May 9.1 01:30:45 10° W 01:40:01 56° SSW 01:49:34 10° SE visible
27 May 9.8 03:36:03 10° W 03:43:37 27° SW 03:51:22 10° S visible
27 May 9.0 23:04:24 10° WSW 23:13:46 70° S 23:23:28 10° E visible
28 May 9.1 01:09:01 10° W 01:18:17 57° SSW 01:27:51 10° SE visible
28 May 9.7 03:14:14 10° W 03:21:55 28° SW 03:29:49 10° S visible
28 May 9.0 22:42:41 10° WSW 22:52:02 70° S 23:01:41 10° E visible
29 May 9.0 00:47:17 10° W 00:56:33 58° SSW 01:06:07 10° SE visible
29 May 9.7 02:52:26 10° W 03:00:15 29° SW 03:08:16 10° SSE visible
29 May 9.0 22:20:58 10° WSW 22:30:17 70° S 22:39:54 10° E visible
30 May 9.0 00:25:33 10° W 00:34:49 59° SSW 00:44:22 10° SE visible
30 May 9.7 02:30:38 10° W 02:38:33 30° SW 02:46:41 10° SSE visible
30 May 9.0 21:59:15 10° WSW 22:08:32 70° S 22:18:08 10° E visible
31 May 9.0 00:03:48 10° W 00:13:04 60° SSW 00:22:38 10° ESE visible
31 May 9.6 02:08:51 10° W 02:16:52 31° SW 02:25:06 10° SSE visible
31 May 9.0 21:37:32 10° WSW 21:46:48 69° S 21:56:21 10° E visible
31 May 9.0 23:42:05 10° W 23:51:20 61° SSW 00:00:54 10° ESE visible
01 Jun 9.6 01:47:04 10° W 01:55:11 32° SW 02:03:31 10° SSE visible
01 Jun 9.1 21:15:49 10° WSW 21:25:04 69° S 21:34:35 10° E visible
01 Jun 9.0 23:20:21 10° W 23:29:37 62° SSW 23:39:09 10° ESE visible
02 Jun 9.6 01:25:18 10° W 01:33:29 34° SW 01:41:54 10° SSE visible
02 Jun 9.0 22:58:38 10° W 23:07:52 63° SSW 23:17:25 10° ESE visible
03 Jun 9.5 01:03:31 10° W 01:11:47 35° SW 01:18:31 16° SSE visible
03 Jun 10.5 03:13:22 10° WSW 03:14:29 10° WSW 03:15:35 10° SW visible
03 Jun 9.0 22:36:53 10° W 22:46:08 64° SSW 22:55:40 10° ESE visible
